Time,TemperatureF,DewpointF,PressureIn,WindDirection,WindDirectionDegrees,WindSpeedMPH,WindSpeedGustMPH,Humidity,HourlyPrecipIn,Conditions,Clouds,dailyrainin,SoftwareType,DateUTC
2013-08-09 00:01:00,53.2,42.1,29.83,West,281,4.2,10.7,66,0.00,,,0.03,WSDL version 420,2013-08-08 14:01:00,
2013-08-09 00:06:00,53.0,42.1,29.83,West,270,3.5,7.2,67,0.00,,,0.00,WSDL version 420,2013-08-08 14:06:00,
2013-08-09 00:11:00,52.6,42.1,29.83,West,276,3.5,6.3,68,0.00,,,0.00,WSDL version 420,2013-08-08 14:11:00,
2013-08-09 00:16:00,52.2,41.9,29.85,SE,129,2.2,6.3,68,0.00,,,0.00,WSDL version 420,2013-08-08 14:16:00,
2013-08-09 00:21:00,51.5,41.8,29.85,NE,48,1.6,3.4,70,0.00,,,0.00,WSDL version 420,2013-08-08 14:21:00,
2013-08-09 00:26:00,51.1,42.0,29.85,WNW,283,2.0,3.6,71,0.00,,,0.00,WSDL version 420,2013-08-08 14:26:00,
2013-08-09 00:31:00,51.2,42.4,29.85,SSW,212,1.2,3.6,72,0.00,,,0.00,WSDL version 420,2013-08-08 14:31:00,
2013-08-09 00:36:00,51.4,43.1,29.85,WNW,283,1.8,4.7,73,0.00,,,0.00,WSDL version 420,2013-08-08 14:36:00,
2013-08-09 00:41:00,51.5,43.2,29.85,WSW,250,1.0,4.7,73,-99.99,,,-99.99,WSDL version 420,2013-08-08 14:41:00,
2013-08-09 00:46:00,51.6,43.6,29.83,WNW,290,2.9,4.3,74,0.00,,,0.00,WSDL version 420,2013-08-08 14:46:00,
2013-08-09 00:51:00,52.0,43.4,29.83,WNW,300,0.4,4.9,72,0.00,,,0.00,WSDL version 420,2013-08-08 14:51:00,
2013-08-09 00:56:00,52.1,43.4,29.83,West,264,3.6,6.0,71,0.00,,,0.00,WSDL version 420,2013-08-08 14:56:00,
2013-08-09 01:01:00,52.3,43.1,29.85,WNW,286,2.1,7.6,70,0.00,,,0.00,WSDL version 420,2013-08-08 15:01:00,
2013-08-09 01:06:00,52.2,42.7,29.85,WSW,248,2.5,7.6,70,0.00,,,0.00,WSDL version 420,2013-08-08 15:06:00,
2013-08-09 01:11:00,52.2,42.7,29.85,SE,144,2.6,4.0,70,0.00,,,0.00,WSDL version 420,2013-08-08 15:11:00,
2013-08-09 01:16:00,52.2,43.0,29.85,WNW,285,2.8,4.3,70,0.00,,,0.00,WSDL version 420,2013-08-08 15:16:00,
2013-08-09 01:21:00,52.1,42.6,29.85,WSW,256,2.2,4.3,70,0.00,,,0.00,WSDL version 420,2013-08-08 15:21:00,
2013-08-09 01:26:00,51.7,42.5,29.85,West,270,0.8,3.6,71,0.00,,,0.00,WSDL version 420,2013-08-08 15:26:00,
2013-08-09 01:31:00,51.2,42.4,29.85,East,88,0.5,4.3,72,-99.99,,,-99.99,WSDL version 420,2013-08-08 15:31:00,
2013-08-09 01:36:00,50.5,42.1,29.85,SW,234,0.9,4.3,73,0.00,,,0.00,WSDL version 420,2013-08-08 15:36:00,
2013-08-09 01:41:00,50.2,42.0,29.85,WNW,301,1.3,4.3,74,0.00,,,0.00,WSDL version 420,2013-08-08 15:41:00,
2013-08-09 01:46:00,50.2,42.2,29.85,SE,124,0.9,4.3,74,0.00,,,0.00,WSDL version 420,2013-08-08 15:46:00,
2013-08-09 01:51:00,50.3,42.7,29.85,WNW,302,1.9,6.5,75,0.00,,,0.00,WSDL version 420,2013-08-08 15:51:00,
2013-08-09 01:56:00,50.7,43.1,29.85,SW,233,1.9,6.5,75,0.00,,,0.00,WSDL version 420,2013-08-08 15:56:00,
2013-08-09 02:01:00,50.5,42.9,29.85,West,264,0.7,5.8,75,0.00,,,0.00,WSDL version 420,2013-08-08 16:01:00,
2013-08-09 02:06:00,50.3,42.7,29.85,South,186,0.3,4.7,75,-99.99,,,-99.99,WSDL version 420,2013-08-08 16:06:00,
2013-08-09 02:11:00,49.9,42.6,29.85,SW,225,0.6,2.9,76,0.00,,,0.00,WSDL version 420,2013-08-08 16:11:00,
2013-08-09 02:16:00,49.2,42.0,29.85,ESE,113,1.1,2.5,77,0.00,,,0.00,WSDL version 420,2013-08-08 16:16:00,
2013-08-09 02:21:00,48.9,42.4,29.85,WSW,244,0.8,2.7,79,0.00,,,0.00,WSDL version 420,2013-08-08 16:21:00,
2013-08-09 02:26:00,48.9,42.9,29.85,SE,143,0.3,2.7,80,0.00,,,0.00,WSDL version 420,2013-08-08 16:26:00,
2013-08-09 02:31:00,48.7,43.1,29.85,SSW,206,0.0,2.0,81,0.00,,,0.00,WSDL version 420,2013-08-08 16:31:00,
2013-08-09 02:36:00,48.6,43.3,29.85,SSE,154,2.2,3.8,83,0.00,,,0.00,WSDL version 420,2013-08-08 16:36:00,
2013-08-09 02:41:00,48.4,43.6,29.85,South,183,0.0,3.8,83,0.00,,,0.00,WSDL version 420,2013-08-08 16:41:00,
2013-08-09 02:46:00,47.8,43.3,29.85,SSE,149,0.5,2.2,84,0.00,,,0.00,WSDL version 420,2013-08-08 16:46:00,
2013-08-09 02:51:00,47.5,43.4,29.85,SSE,150,0.4,2.0,87,0.00,,,0.00,WSDL version 420,2013-08-08 16:51:00,
2013-08-09 02:56:00,47.2,43.6,29.85,SSE,164,0.4,2.5,88,0.00,,,0.00,WSDL version 420,2013-08-08 16:56:00,
2013-08-09 03:01:00,46.9,43.9,29.85,SE,125,0.9,3.1,90,0.00,,,0.00,WSDL version 420,2013-08-08 17:01:00,
2013-08-09 03:06:00,46.8,44.5,29.85,SSE,150,1.1,3.1,92,-99.99,,,-99.99,WSDL version 420,2013-08-08 17:06:00,
2013-08-09 03:11:00,46.6,44.7,29.85,SE,128,0.6,2.7,93,0.00,,,0.00,WSDL version 420,2013-08-08 17:11:00,
2013-08-09 03:16:00,46.4,44.9,29.85,SE,141,0.2,2.7,94,0.00,,,0.00,WSDL version 420,2013-08-08 17:16:00,
2013-08-09 03:21:00,46.2,45.0,29.85,ESE,121,1.1,2.0,96,0.00,,,0.00,WSDL version 420,2013-08-08 17:21:00,
2013-08-09 03:26:00,46.0,45.0,29.85,SSE,148,1.2,2.2,97,0.00,,,0.00,WSDL version 420,2013-08-08 17:26:00,
2013-08-09 03:31:00,46.0,45.4,29.85,SE,125,1.6,2.7,98,0.00,,,0.00,WSDL version 420,2013-08-08 17:31:00,
2013-08-09 03:36:00,46.0,45.7,29.85,South,174,0.5,2.7,99,0.00,,,0.00,WSDL version 420,2013-08-08 17:36:00,
2013-08-09 03:41:00,46.0,45.7,29.85,West,259,0.0,2.2,99,0.00,,,0.00,WSDL version 420,2013-08-08 17:41:00,
2013-08-09 03:46:00,45.8,45.5,29.85,SE,146,1.6,3.6,99,0.00,,,0.00,WSDL version 420,2013-08-08 17:46:00,
2013-08-09 03:51:00,45.9,45.9,29.85,SE,143,0.4,3.6,100,0.00,,,0.00,WSDL version 420,2013-08-08 17:51:00,
2013-08-09 03:56:00,45.8,45.8,29.85,SW,225,0.0,2.2,100,0.00,,,0.00,WSDL version 420,2013-08-08 17:56:00,
2013-08-09 04:01:00,45.5,45.2,29.85,SE,131,1.0,2.5,99,0.00,,,0.00,WSDL version 420,2013-08-08 18:01:00,
2013-08-09 04:06:00,45.4,45.2,29.85,SE,131,1.3,2.5,100,0.00,,,0.00,WSDL version 420,2013-08-08 18:06:00,
2013-08-09 04:11:00,45.3,45.3,29.85,SE,132,1.5,2.2,100,0.00,,,0.00,WSDL version 420,2013-08-08 18:11:00,
2013-08-09 04:16:00,45.3,45.3,29.85,SSE,154,1.0,2.2,100,0.00,,,0.00,WSDL version 420,2013-08-08 18:16:00,
2013-08-09 04:21:00,45.1,45.1,29.85,ESE,116,0.3,2.7,100,0.00,,,0.00,WSDL version 420,2013-08-08 18:21:00,
2013-08-09 04:26:00,45.0,45.0,29.85,SE,138,0.2,2.7,100,0.00,,,0.00,WSDL version 420,2013-08-08 18:26:00,
2013-08-09 04:31:00,45.0,45.0,29.85,ESE,116,0.2,2.0,100,0.00,,,0.00,WSDL version 420,2013-08-08 18:31:00,
2013-08-09 04:36:00,44.8,44.8,29.85,SSE,161,0.0,2.5,100,0.00,,,0.00,WSDL version 420,2013-08-08 18:36:00,
2013-08-09 04:41:00,44.8,44.8,29.85,SSE,165,0.6,2.5,100,0.00,,,0.00,WSDL version 420,2013-08-08 18:41:00,
2013-08-09 04:46:00,44.8,44.8,29.85,SE,125,1.8,2.5,100,0.00,,,0.00,WSDL version 420,2013-08-08 18:46:00,
2013-08-09 04:51:00,44.8,44.8,29.85,SE,125,1.3,2.5,100,0.00,,,0.00,WSDL version 420,2013-08-08 18:51:00,
2013-08-09 04:56:00,44.8,44.8,29.85,South,174,0.0,2.5,100,0.00,,,0.00,WSDL version 420,2013-08-08 18:56:00,
2013-08-09 05:01:00,44.7,44.7,29.85,SE,133,0.2,2.2,100,0.00,,,0.00,WSDL version 420,2013-08-08 19:01:00,
2013-08-09 05:06:00,44.6,44.6,29.85,ENE,77,0.5,2.0,100,0.00,,,0.00,WSDL version 420,2013-08-08 19:06:00,
2013-08-09 05:11:00,44.6,44.6,29.85,SE,138,0.9,2.2,100,0.00,,,0.00,WSDL version 420,2013-08-08 19:11:00,
2013-08-09 05:16:00,44.6,44.6,29.85,SE,143,0.9,2.2,100,0.00,,,0.00,WSDL version 420,2013-08-08 19:16:00,
2013-08-09 05:26:00,44.6,44.6,29.85,SSE,158,0.3,2.5,100,0.00,,,0.00,WSDL version 420,2013-08-08 19:26:00,
2013-08-09 05:31:00,44.6,44.6,29.85,WNW,302,0.2,2.7,100,0.00,,,0.00,WSDL version 420,2013-08-08 19:31:00,
2013-08-09 05:36:00,44.6,44.6,29.85,SE,132,0.9,2.7,100,0.00,,,0.00,WSDL version 420,2013-08-08 19:36:00,
2013-08-09 05:41:00,44.6,44.6,29.85,North,8,1.0,2.2,100,0.00,,,0.00,WSDL version 420,2013-08-08 19:41:00,
2013-08-09 05:46:00,44.6,44.6,29.85,WNW,299,1.0,5.8,100,0.00,,,0.00,WSDL version 420,2013-08-08 19:46:00,
2013-08-09 05:51:00,45.2,45.2,29.85,South,183,0.6,6.5,100,0.00,,,0.00,WSDL version 420,2013-08-08 19:51:00,
2013-08-09 06:00:00,45.7,45.7,29.85,SW,235,0.2,3.1,100,0.00,,,0.00,WSDL version 420,2013-08-08 20:00:00,
2013-08-09 06:10:00,45.6,45.6,29.85,West,278,1.6,3.1,100,0.00,,,0.00,WSDL version 420,2013-08-08 20:10:00,
2013-08-09 06:15:00,45.4,45.3,29.88,West,281,0.7,2.5,99,0.00,,,0.00,WSDL version 420,2013-08-08 20:15:00,
2013-08-09 06:20:00,45.0,44.7,29.88,SSE,158,0.4,1.6,99,0.00,,,0.00,WSDL version 420,2013-08-08 20:20:00,
2013-08-09 06:25:00,44.5,44.2,29.88,SE,135,1.1,2.2,99,0.00,,,0.00,WSDL version 420,2013-08-08 20:25:00,
2013-08-09 06:30:00,44.3,44.0,29.88,SSE,158,1.0,2.7,99,0.00,,,0.00,WSDL version 420,2013-08-08 20:30:00,
2013-08-09 06:35:00,44.2,43.9,29.88,SE,143,1.4,2.7,99,0.00,,,0.00,WSDL version 420,2013-08-08 20:35:00,
2013-08-09 06:40:00,43.9,43.9,29.88,SE,138,1.1,2.5,100,-99.99,,,-99.99,WSDL version 420,2013-08-08 20:40:00,
2013-08-09 06:45:00,43.7,43.7,29.88,SE,146,1.1,2.5,100,0.00,,,0.00,WSDL version 420,2013-08-08 20:45:00,
2013-08-09 06:50:00,43.5,43.5,29.91,SE,138,2.0,2.5,100,0.00,,,0.00,WSDL version 420,2013-08-08 20:50:00,
2013-08-09 06:55:00,43.7,43.7,29.91,SE,132,1.2,2.5,100,0.00,,,0.00,WSDL version 420,2013-08-08 20:55:00,
2013-08-09 07:00:00,43.6,43.6,29.91,SE,135,1.3,2.2,100,-99.99,,,-99.99,WSDL version 420,2013-08-08 21:00:00,
2013-08-09 07:05:00,43.8,43.8,29.91,SE,132,1.5,2.5,100,0.00,,,0.00,WSDL version 420,2013-08-08 21:05:00,
2013-08-09 07:10:00,44.7,44.7,29.91,SE,132,0.8,2.7,100,0.00,,,0.00,WSDL version 420,2013-08-08 21:10:00,
2013-08-09 07:15:00,44.8,44.8,29.91,SSE,152,0.7,2.7,100,0.00,,,0.00,WSDL version 420,2013-08-08 21:15:00,
2013-08-09 07:20:00,46.1,46.1,29.91,SE,128,0.8,3.4,100,-99.99,,,-99.99,WSDL version 420,2013-08-08 21:20:00,
2013-08-09 07:25:00,48.8,48.8,29.91,SE,132,0.3,3.4,100,0.00,,,0.00,WSDL version 420,2013-08-08 21:25:00,
2013-08-09 07:30:00,49.2,49.2,29.91,SE,141,1.0,2.9,100,0.00,,,0.00,WSDL version 420,2013-08-08 21:30:00,
2013-08-09 07:35:00,49.9,49.8,29.91,SE,129,1.2,2.9,99,0.00,,,0.00,WSDL version 420,2013-08-08 21:35:00,
2013-08-09 07:47:00,51.8,50.6,29.94,SE,128,0.7,2.0,96,-99.99,,,-99.99,WSDL version 420,2013-08-08 21:47:00,
2013-08-09 07:54:00,52.5,50.7,29.94,SE,135,0.0,1.6,93,0.00,,,0.00,WSDL version 420,2013-08-08 21:54:00,
2013-08-09 08:04:00,53.1,50.9,29.94,ESE,120,1.7,2.5,92,0.00,,,0.00,WSDL version 420,2013-08-08 22:04:00,
2013-08-09 08:14:00,54.5,50.9,29.94,WNW,300,0.8,2.7,86,0.00,,,0.00,WSDL version 420,2013-08-08 22:14:00,
2013-08-09 08:19:00,55.2,50.0,29.94,WNW,296,2.0,2.9,79,0.00,,,0.00,WSDL version 420,2013-08-08 22:19:00,
2013-08-09 08:26:00,55.6,46.8,29.94,West,264,2.8,5.4,70,0.00,,,0.00,WSDL version 420,2013-08-08 22:26:00,
2013-08-09 08:31:00,55.7,45.5,29.97,WNW,290,3.1,5.4,68,0.00,,,0.00,WSDL version 420,2013-08-08 22:31:00,
2013-08-09 08:36:00,56.1,44.3,29.97,West,278,3.0,4.9,63,0.00,,,0.00,WSDL version 420,2013-08-08 22:36:00,
2013-08-09 08:41:00,56.6,44.2,29.97,WNW,287,2.9,5.4,61,0.00,,,0.00,WSDL version 420,2013-08-08 22:41:00,
2013-08-09 08:46:00,56.7,41.9,29.97,West,278,3.9,6.3,57,0.00,,,0.00,WSDL version 420,2013-08-08 22:46:00,
2013-08-09 08:51:00,57.0,41.4,29.97,West,273,3.8,6.3,55,0.00,,,0.00,WSDL version 420,2013-08-08 22:51:00,
2013-08-09 08:56:00,57.4,40.6,29.97,NW,304,3.7,5.8,53,0.00,,,0.00,WSDL version 420,2013-08-08 22:56:00,
2013-08-09 09:02:00,58.0,41.0,29.97,West,273,3.0,6.3,53,0.00,,,0.00,WSDL version 420,2013-08-08 23:02:00,
2013-08-09 09:07:00,58.9,41.9,29.97,SW,228,2.4,5.6,53,0.00,,,0.00,WSDL version 420,2013-08-08 23:07:00,
2013-08-09 09:12:00,59.6,41.6,29.97,West,270,3.2,4.9,51,0.00,,,0.00,WSDL version 420,2013-08-08 23:12:00,
2013-08-09 09:17:00,60.2,42.2,29.97,WNW,285,2.3,4.9,52,0.00,,,0.00,WSDL version 420,2013-08-08 23:17:00,
2013-08-09 09:22:00,61.2,42.6,29.97,NW,305,3.1,5.4,50,0.00,,,0.00,WSDL version 420,2013-08-08 23:22:00,
2013-08-09 09:27:00,62.1,43.0,29.97,West,273,2.9,5.4,49,-99.99,,,-99.99,WSDL version 420,2013-08-08 23:27:00,
2013-08-09 09:34:00,62.1,42.2,29.94,West,276,3.7,7.8,48,0.00,,,0.00,WSDL version 420,2013-08-08 23:34:00,
2013-08-09 09:39:00,62.7,42.5,29.94,NW,304,2.9,7.8,47,0.00,,,0.00,WSDL version 420,2013-08-08 23:39:00,
2013-08-09 09:44:00,63.6,43.1,29.94,West,270,2.6,4.9,47,0.00,,,0.00,WSDL version 420,2013-08-08 23:44:00,
2013-08-09 09:56:00,64.1,41.6,29.97,West,274,5.4,7.4,43,0.00,,,0.00,WSDL version 420,2013-08-08 23:56:00,
2013-08-09 10:01:00,63.6,41.4,29.97,WNW,285,4.3,7.4,44,0.00,,,0.00,WSDL version 420,2013-08-09 00:01:00,
2013-08-09 10:08:00,64.0,41.7,29.97,WNW,290,3.5,6.3,44,0.00,,,0.00,WSDL version 420,2013-08-09 00:08:00,
2013-08-09 10:13:00,64.1,41.9,29.97,NNW,330,1.9,6.3,45,0.00,,,0.00,WSDL version 420,2013-08-09 00:13:00,
2013-08-09 10:18:00,65.2,42.4,29.97,West,276,4.0,7.8,41,0.00,,,0.00,WSDL version 420,2013-08-09 00:18:00,
2013-08-09 10:23:00,65.6,42.0,29.97,NW,311,3.2,7.8,42,0.00,,,0.00,WSDL version 420,2013-08-09 00:23:00,
2013-08-09 10:28:00,65.8,41.4,29.97,NW,315,2.8,8.5,42,0.00,,,0.00,WSDL version 420,2013-08-09 00:28:00,
2013-08-09 10:35:00,65.9,41.3,29.97,WNW,293,3.4,7.4,41,0.00,,,0.00,WSDL version 420,2013-08-09 00:35:00,
2013-08-09 10:40:00,65.9,41.3,29.97,WNW,287,3.1,7.6,41,-99.99,,,-99.99,WSDL version 420,2013-08-09 00:40:00,
2013-08-09 10:45:00,65.4,40.9,29.94,West,276,3.0,7.6,42,0.00,,,0.00,WSDL version 420,2013-08-09 00:45:00,
2013-08-09 10:50:00,65.9,41.4,29.94,NW,308,2.0,7.6,42,0.00,,,0.00,WSDL version 420,2013-08-09 00:50:00,
2013-08-09 10:55:00,66.1,41.8,29.94,East,96,2.0,7.6,41,0.00,,,0.00,WSDL version 420,2013-08-09 00:55:00,
2013-08-09 11:00:00,65.6,41.0,29.94,West,281,3.9,7.2,41,0.00,,,0.00,WSDL version 420,2013-08-09 01:00:00,
2013-08-09 11:05:00,66.6,41.8,29.94,NW,319,3.1,7.2,40,0.00,,,0.00,WSDL version 420,2013-08-09 01:05:00,
2013-08-09 11:12:00,68.2,42.0,29.94,SW,225,3.5,5.6,37,-99.99,,,-99.99,WSDL version 420,2013-08-09 01:12:00,
2013-08-09 11:17:00,68.4,41.6,29.94,WNW,293,5.1,7.4,37,0.00,,,0.00,WSDL version 420,2013-08-09 01:17:00,
2013-08-09 11:22:00,68.3,41.1,29.94,NNW,338,3.5,7.4,37,0.00,,,0.00,WSDL version 420,2013-08-09 01:22:00,
2013-08-09 11:27:00,68.1,40.2,29.94,West,270,5.1,7.4,36,0.00,,,0.00,WSDL version 420,2013-08-09 01:27:00,
2013-08-09 11:32:00,68.9,41.6,29.91,WNW,299,2.6,7.4,37,0.00,,,0.00,WSDL version 420,2013-08-09 01:32:00,
2013-08-09 11:37:00,68.8,40.6,29.91,NW,315,2.8,7.4,36,-99.99,,,-99.99,WSDL version 420,2013-08-09 01:37:00,
2013-08-09 11:42:00,69.8,42.1,29.91,WNW,299,2.6,7.4,36,0.00,,,0.00,WSDL version 420,2013-08-09 01:42:00,
2013-08-09 11:48:00,69.5,41.1,29.91,WNW,295,3.2,6.5,36,0.00,,,0.00,WSDL version 420,2013-08-09 01:48:00,
2013-08-09 11:53:00,70.9,42.4,29.91,NNE,16,2.5,6.5,35,0.00,,,0.00,WSDL version 420,2013-08-09 01:53:00,
2013-08-09 11:58:00,70.4,41.5,29.91,WNW,289,3.7,5.4,35,0.00,,,0.00,WSDL version 420,2013-08-09 01:58:00,
2013-08-09 12:03:00,70.4,41.5,29.88,WNW,288,4.3,5.8,35,0.00,,,0.00,WSDL version 420,2013-08-09 02:03:00,
2013-08-09 12:08:00,70.5,42.3,29.88,NNE,13,3.4,5.8,36,0.00,,,0.00,WSDL version 420,2013-08-09 02:08:00,
2013-08-09 12:13:00,69.9,41.6,29.88,NW,312,3.3,6.0,36,0.00,,,0.00,WSDL version 420,2013-08-09 02:13:00,
2013-08-09 12:18:00,69.9,41.2,29.94,West,259,4.4,7.4,36,0.00,,,0.00,WSDL version 420,2013-08-09 02:18:00,
2013-08-09 12:23:00,70.5,42.1,29.94,NNW,331,3.6,7.4,35,0.00,,,0.00,WSDL version 420,2013-08-09 02:23:00,
2013-08-09 12:28:00,70.6,41.5,29.94,WSW,250,3.3,4.9,35,0.00,,,0.00,WSDL version 420,2013-08-09 02:28:00,
2013-08-09 12:33:00,70.5,40.8,29.88,NW,305,3.6,6.3,34,0.00,,,0.00,WSDL version 420,2013-08-09 02:33:00,
2013-08-09 12:38:00,70.9,41.9,29.88,WNW,290,3.0,6.3,35,0.00,,,0.00,WSDL version 420,2013-08-09 02:38:00,
2013-08-09 12:45:00,70.8,41.3,29.91,WNW,295,3.3,6.9,35,0.00,,,0.00,WSDL version 420,2013-08-09 02:45:00,
2013-08-09 12:50:00,71.2,41.7,29.91,West,278,2.5,6.0,34,0.00,,,0.00,WSDL version 420,2013-08-09 02:50:00,
2013-08-09 12:55:00,71.3,40.9,29.91,NNW,328,4.6,8.7,33,0.00,,,0.00,WSDL version 420,2013-08-09 02:55:00,
2013-08-09 13:00:00,70.8,40.5,29.88,WNW,302,4.5,8.7,33,0.00,,,0.00,WSDL version 420,2013-08-09 03:00:00,
2013-08-09 13:05:00,71.0,40.7,29.88,NW,308,2.4,7.2,33,0.00,,,0.00,WSDL version 420,2013-08-09 03:05:00,
2013-08-09 13:10:00,71.6,41.0,29.88,NE,34,3.7,6.3,33,0.00,,,0.00,WSDL version 420,2013-08-09 03:10:00,
2013-08-09 13:15:00,71.2,40.9,29.88,WNW,289,4.8,6.5,33,0.00,,,0.00,WSDL version 420,2013-08-09 03:15:00,
2013-08-09 13:22:00,71.5,41.0,29.88,NW,323,3.9,8.5,33,0.00,,,0.00,WSDL version 420,2013-08-09 03:22:00,
2013-08-09 13:27:00,71.2,40.7,29.88,NW,315,3.9,8.5,33,0.00,,,0.00,WSDL version 420,2013-08-09 03:27:00,
2013-08-09 13:32:00,71.2,40.7,29.85,NW,321,4.7,7.8,33,0.00,,,0.00,WSDL version 420,2013-08-09 03:32:00,
2013-08-09 13:37:00,71.6,41.0,29.85,WNW,300,4.0,6.3,33,0.00,,,0.00,WSDL version 420,2013-08-09 03:37:00,
2013-08-09 13:42:00,71.8,41.2,29.85,WSW,241,3.0,6.3,33,0.00,,,0.00,WSDL version 420,2013-08-09 03:42:00,
2013-08-09 13:47:00,72.1,40.9,29.85,West,280,4.8,7.2,32,0.00,,,0.00,WSDL version 420,2013-08-09 03:47:00,
2013-08-09 13:54:00,72.1,40.8,29.85,WNW,286,4.3,7.8,32,0.00,,,0.00,WSDL version 420,2013-08-09 03:54:00,
2013-08-09 14:01:00,72.2,40.8,29.85,NNW,328,5.7,8.7,32,0.00,,,0.00,WSDL version 420,2013-08-09 04:01:00,
2013-08-09 14:06:00,71.1,40.3,29.85,West,267,5.1,8.7,33,0.00,,,0.00,WSDL version 420,2013-08-09 04:06:00,
2013-08-09 14:11:00,69.8,39.3,29.85,West,281,3.2,8.5,33,0.00,,,0.00,WSDL version 420,2013-08-09 04:11:00,
2013-08-09 14:16:00,69.1,38.8,29.85,WNW,289,5.7,10.5,33,0.00,,,0.00,WSDL version 420,2013-08-09 04:16:00,
2013-08-09 14:21:00,68.3,38.6,29.85,West,267,3.8,10.5,34,0.00,,,0.00,WSDL version 420,2013-08-09 04:21:00,
2013-08-09 14:26:00,67.6,38.3,29.85,WNW,295,3.7,9.6,34,0.00,,,0.00,WSDL version 420,2013-08-09 04:26:00,
2013-08-09 14:31:00,67.4,38.7,29.83,NW,311,3.1,9.6,35,0.00,,,0.00,WSDL version 420,2013-08-09 04:31:00,
2013-08-09 14:36:00,66.9,38.4,29.83,NW,308,3.4,5.4,35,0.00,,,0.00,WSDL version 420,2013-08-09 04:36:00,
2013-08-09 14:41:00,66.7,38.2,29.83,WNW,283,2.5,5.4,35,0.00,,,0.00,WSDL version 420,2013-08-09 04:41:00,
2013-08-09 14:46:00,66.5,38.0,29.85,WNW,293,2.2,5.4,35,0.00,,,0.00,WSDL version 420,2013-08-09 04:46:00,
2013-08-09 14:51:00,66.2,38.1,29.85,WNW,293,3.1,5.8,36,0.00,,,0.00,WSDL version 420,2013-08-09 04:51:00,
2013-08-09 14:56:00,66.1,38.4,29.85,NW,323,2.5,5.8,36,0.00,,,0.00,WSDL version 420,2013-08-09 04:56:00,
2013-08-09 15:01:00,65.8,38.5,29.85,WNW,289,2.7,6.3,37,0.00,,,0.00,WSDL version 420,2013-08-09 05:01:00,
2013-08-09 15:06:00,65.8,38.9,29.85,WNW,289,2.3,6.3,37,0.00,,,0.00,WSDL version 420,2013-08-09 05:06:00,
2013-08-09 15:11:00,65.8,38.9,29.85,North,350,2.5,4.0,37,0.00,,,0.00,WSDL version 420,2013-08-09 05:11:00,
2013-08-09 15:16:00,65.9,39.1,29.85,WNW,293,2.0,4.0,37,0.00,,,0.00,WSDL version 420,2013-08-09 05:16:00,
2013-08-09 15:21:00,66.2,39.2,29.85,NW,305,3.5,6.0,37,-99.99,,,-99.99,WSDL version 420,2013-08-09 05:21:00,
2013-08-09 15:26:00,68.0,40.8,29.85,NW,309,2.1,6.0,37,0.00,,,0.00,WSDL version 420,2013-08-09 05:26:00,
2013-08-09 15:31:00,69.1,41.4,29.85,WNW,302,2.1,4.7,36,0.00,,,0.00,WSDL version 420,2013-08-09 05:31:00,
2013-08-09 15:36:00,68.8,40.0,29.85,WNW,293,3.9,5.8,35,0.00,,,0.00,WSDL version 420,2013-08-09 05:36:00,
2013-08-09 15:41:00,67.9,39.3,29.85,WNW,283,2.8,5.8,35,0.00,,,0.00,WSDL version 420,2013-08-09 05:41:00,
2013-08-09 15:46:00,67.2,38.7,29.85,WNW,293,2.9,5.6,35,0.00,,,0.00,WSDL version 420,2013-08-09 05:46:00,
2013-08-09 15:51:00,67.0,39.0,29.85,WNW,287,2.5,5.6,36,0.00,,,0.00,WSDL version 420,2013-08-09 05:51:00,
2013-08-09 15:56:00,66.8,39.0,29.85,West,280,2.6,5.6,36,0.00,,,0.00,WSDL version 420,2013-08-09 05:56:00,
2013-08-09 16:01:00,66.3,38.5,29.85,WNW,301,2.9,5.6,36,0.00,,,0.00,WSDL version 420,2013-08-09 06:01:00,
2013-08-09 16:06:00,65.9,38.9,29.85,West,278,2.6,5.8,37,0.00,,,0.00,WSDL version 420,2013-08-09 06:06:00,
2013-08-09 16:11:00,65.7,39.0,29.85,WNW,297,1.7,5.8,38,-99.99,,,-99.99,WSDL version 420,2013-08-09 06:11:00,
2013-08-09 16:16:00,65.5,39.3,29.85,WNW,288,1.9,2.9,38,0.00,,,0.00,WSDL version 420,2013-08-09 06:16:00,
2013-08-09 16:21:00,65.2,39.3,29.85,NW,309,0.7,3.6,39,0.00,,,0.00,WSDL version 420,2013-08-09 06:21:00,
2013-08-09 16:26:00,65.1,39.6,29.85,NW,315,0.7,3.6,39,0.00,,,0.00,WSDL version 420,2013-08-09 06:26:00,
2013-08-09 16:31:00,64.9,40.1,29.85,NW,318,2.1,3.1,40,0.00,,,0.00,WSDL version 420,2013-08-09 06:31:00,
2013-08-09 16:41:00,63.8,39.4,29.85,NW,312,1.5,7.2,41,0.00,,,0.00,WSDL version 420,2013-08-09 06:41:00,
2013-08-09 16:46:00,63.5,39.4,29.85,WNW,287,1.9,4.0,41,0.00,,,0.00,WSDL version 420,2013-08-09 06:46:00,
2013-08-09 16:51:00,63.2,39.8,29.85,West,274,2.1,4.0,42,0.00,,,0.00,WSDL version 420,2013-08-09 06:51:00,
2013-08-09 16:56:00,62.8,39.4,29.85,NW,321,1.2,3.1,42,0.00,,,0.00,WSDL version 420,2013-08-09 06:56:00,
2013-08-09 17:01:00,62.6,39.8,29.85,West,279,1.7,2.9,43,0.00,,,0.00,WSDL version 420,2013-08-09 07:01:00,
2013-08-09 17:06:00,62.3,39.7,29.85,NW,323,2.2,2.7,44,0.00,,,0.00,WSDL version 420,2013-08-09 07:06:00,
2013-08-09 17:11:00,62.1,40.0,29.85,NNW,332,1.3,2.9,44,0.00,,,0.00,WSDL version 420,2013-08-09 07:11:00,
2013-08-09 17:16:00,61.8,39.7,29.85,WSW,254,1.0,2.9,44,0.00,,,0.00,WSDL version 420,2013-08-09 07:16:00,
2013-08-09 17:21:00,61.6,39.5,29.85,NW,325,1.0,3.1,44,0.00,,,0.00,WSDL version 420,2013-08-09 07:21:00,
2013-08-09 17:26:00,-999.0,-99.9,29.85,West,262,0.0,3.1,-999,0.00,,,0.00,WSDL version 420,2013-08-09 07:26:00,
2013-08-09 17:31:00,61.0,40.1,29.85,SSW,203,0.0,0.0,47,0.00,,,0.00,WSDL version 420,2013-08-09 07:31:00,
2013-08-09 17:36:00,60.4,40.4,29.85,South,188,0.0,0.0,48,0.00,,,0.00,WSDL version 420,2013-08-09 07:36:00,
2013-08-09 17:41:00,59.8,40.3,29.85,South,183,0.0,0.0,49,0.00,,,0.00,WSDL version 420,2013-08-09 07:41:00,
2013-08-09 17:46:00,59.5,40.5,29.85,SSE,167,0.7,2.2,50,0.00,,,0.00,WSDL version 420,2013-08-09 07:46:00,
2013-08-09 17:51:00,59.1,40.9,29.85,West,267,2.1,2.9,51,0.00,,,0.00,WSDL version 420,2013-08-09 07:51:00,
2013-08-09 17:56:00,58.9,41.2,29.85,WSW,248,1.9,3.8,52,0.00,,,0.00,WSDL version 420,2013-08-09 07:56:00,
2013-08-09 18:01:00,59.2,40.7,29.83,WSW,250,2.1,3.8,50,0.00,,,0.00,WSDL version 420,2013-08-09 08:01:00,
2013-08-09 18:06:00,59.5,40.1,29.83,WSW,257,2.6,3.6,48,0.00,,,0.00,WSDL version 420,2013-08-09 08:06:00,
2013-08-09 18:11:00,60.0,39.9,29.83,West,270,1.1,3.6,47,0.00,,,0.00,WSDL version 420,2013-08-09 08:11:00,
2013-08-09 18:16:00,60.1,39.8,29.83,WNW,297,0.0,3.6,47,0.00,,,0.00,WSDL version 420,2013-08-09 08:16:00,
2013-08-09 18:21:00,60.2,39.6,29.83,NNW,338,1.1,2.9,46,0.00,,,0.00,WSDL version 420,2013-08-09 08:21:00,
2013-08-09 18:26:00,60.4,39.5,29.83,WNW,285,1.1,3.1,46,0.00,,,0.00,WSDL version 420,2013-08-09 08:26:00,
2013-08-09 18:31:00,60.4,39.5,29.85,WNW,286,2.4,4.3,46,0.00,,,0.00,WSDL version 420,2013-08-09 08:31:00,
2013-08-09 18:36:00,60.3,39.0,29.85,WNW,284,2.8,6.0,45,0.00,,,0.00,WSDL version 420,2013-08-09 08:36:00,
2013-08-09 18:41:00,60.3,38.9,29.85,WNW,286,2.7,6.0,45,0.00,,,0.00,WSDL version 420,2013-08-09 08:41:00,
2013-08-09 18:46:00,60.3,38.9,29.85,WNW,293,2.1,4.7,45,0.00,,,0.00,WSDL version 420,2013-08-09 08:46:00,
2013-08-09 18:51:00,60.2,38.8,29.85,WNW,287,2.5,4.3,45,-99.99,,,-99.99,WSDL version 420,2013-08-09 08:51:00,
2013-08-09 18:56:00,60.1,38.7,29.85,WNW,283,1.9,4.3,45,0.00,,,0.00,WSDL version 420,2013-08-09 08:56:00,
2013-08-09 19:01:00,59.9,38.6,29.85,West,264,0.5,4.0,45,0.00,,,0.00,WSDL version 420,2013-08-09 09:01:00,
2013-08-09 19:06:00,59.7,38.3,29.85,West,267,0.9,3.1,45,0.00,,,0.00,WSDL version 420,2013-08-09 09:06:00,
2013-08-09 19:11:00,59.5,38.8,29.85,West,270,2.7,3.6,46,0.00,,,0.00,WSDL version 420,2013-08-09 09:11:00,
2013-08-09 19:16:00,59.3,38.6,29.83,WSW,255,0.0,3.6,46,0.00,,,0.00,WSDL version 420,2013-08-09 09:16:00,
2013-08-09 19:21:00,59.2,38.4,29.83,WNW,284,3.3,5.6,46,0.00,,,0.00,WSDL version 420,2013-08-09 09:21:00,
2013-08-09 19:26:00,59.2,37.9,29.83,West,274,2.9,5.6,45,0.00,,,0.00,WSDL version 420,2013-08-09 09:26:00,
2013-08-09 19:31:00,59.4,38.0,29.85,West,273,3.6,6.3,45,0.00,,,0.00,WSDL version 420,2013-08-09 09:31:00,
2013-08-09 19:36:00,59.4,37.9,29.85,WNW,283,2.7,6.5,44,0.00,,,0.00,WSDL version 420,2013-08-09 09:36:00,
2013-08-09 19:41:00,59.5,37.5,29.85,West,264,2.6,6.5,44,0.00,,,0.00,WSDL version 420,2013-08-09 09:41:00,
2013-08-09 19:46:00,59.4,38.0,29.85,West,261,2.4,6.0,45,0.00,,,0.00,WSDL version 420,2013-08-09 09:46:00,
2013-08-09 19:51:00,59.2,37.3,29.85,West,262,2.2,5.8,44,0.00,,,0.00,WSDL version 420,2013-08-09 09:51:00,
2013-08-09 19:56:00,59.0,37.3,29.85,West,264,2.8,5.8,45,0.00,,,0.00,WSDL version 420,2013-08-09 09:56:00,
2013-08-09 20:01:00,58.7,37.5,29.85,West,273,1.1,4.0,45,0.00,,,0.00,WSDL version 420,2013-08-09 10:01:00,
2013-08-09 20:06:00,58.6,37.7,29.85,West,267,2.6,4.3,46,0.00,,,0.00,WSDL version 420,2013-08-09 10:06:00,
2013-08-09 20:16:00,58.5,37.8,29.85,West,276,2.5,5.8,46,0.00,,,0.00,WSDL version 420,2013-08-09 10:16:00,
2013-08-09 20:21:00,58.5,37.4,29.85,West,276,2.2,4.0,45,0.00,,,0.00,WSDL version 420,2013-08-09 10:21:00,
2013-08-09 20:26:00,58.5,37.6,29.85,NW,308,3.1,4.9,45,0.00,,,0.00,WSDL version 420,2013-08-09 10:26:00,
2013-08-09 20:31:00,58.5,37.2,29.85,West,264,2.5,4.9,45,0.00,,,0.00,WSDL version 420,2013-08-09 10:31:00,
2013-08-09 20:36:00,58.3,37.7,29.85,NW,315,1.9,4.7,46,-99.99,,,-99.99,WSDL version 420,2013-08-09 10:36:00,
2013-08-09 20:41:00,58.2,37.6,29.85,WSW,257,1.0,2.9,46,0.00,,,0.00,WSDL version 420,2013-08-09 10:41:00,
2013-08-09 20:46:00,57.9,37.3,29.85,West,273,2.7,3.6,46,-99.99,,,-99.99,WSDL version 420,2013-08-09 10:46:00,
2013-08-09 20:51:00,-999.0,-99.9,29.85,West,273,2.6,3.6,-999,0.00,,,0.00,WSDL version 420,2013-08-09 10:51:00,
2013-08-09 21:01:00,58.0,36.8,29.85,West,279,4.5,6.0,45,0.00,,,0.00,WSDL version 420,2013-08-09 11:01:00,
2013-08-09 21:06:00,58.3,37.1,29.85,West,273,5.5,7.2,45,0.00,,,0.00,WSDL version 420,2013-08-09 11:06:00,
2013-08-09 21:16:00,58.6,37.4,29.83,West,260,4.2,9.8,45,0.00,,,0.00,WSDL version 420,2013-08-09 11:16:00,
2013-08-09 21:21:00,58.6,37.4,29.83,West,267,4.2,9.6,45,0.00,,,0.00,WSDL version 420,2013-08-09 11:21:00,
2013-08-09 21:26:00,58.6,37.4,29.83,West,260,4.1,9.6,45,0.00,,,0.00,WSDL version 420,2013-08-09 11:26:00,
2013-08-09 21:36:00,58.3,37.1,29.85,WSW,244,1.8,6.5,45,0.00,,,0.00,WSDL version 420,2013-08-09 11:36:00,
2013-08-09 21:41:00,58.1,36.9,29.85,South,169,1.1,4.0,45,0.00,,,0.00,WSDL version 420,2013-08-09 11:41:00,
2013-08-09 21:46:00,57.5,36.9,29.85,WSW,239,1.3,2.7,46,0.00,,,0.00,WSDL version 420,2013-08-09 11:46:00,
2013-08-09 21:51:00,57.0,37.0,29.85,SSE,154,1.0,2.7,47,0.00,,,0.00,WSDL version 420,2013-08-09 11:51:00,
2013-08-09 21:56:00,56.5,37.2,29.85,South,176,0.9,2.7,49,0.00,,,0.00,WSDL version 420,2013-08-09 11:56:00,
2013-08-09 22:01:00,55.9,37.5,29.85,SW,220,1.6,2.7,50,0.00,,,0.00,WSDL version 420,2013-08-09 12:01:00,
2013-08-09 22:06:00,55.7,37.3,29.85,SW,225,1.9,3.1,50,0.00,,,0.00,WSDL version 420,2013-08-09 12:06:00,
2013-08-09 22:11:00,55.6,37.5,29.85,West,270,1.9,4.9,50,0.00,,,0.00,WSDL version 420,2013-08-09 12:11:00,
2013-08-09 22:16:00,56.0,37.2,29.85,West,266,1.8,5.8,49,0.00,,,0.00,WSDL version 420,2013-08-09 12:16:00,
2013-08-09 22:26:00,56.7,37.3,29.85,West,274,4.3,7.8,48,0.00,,,0.00,WSDL version 420,2013-08-09 12:26:00,
2013-08-09 22:31:00,57.0,36.8,29.85,West,270,5.0,7.8,46,0.00,,,0.00,WSDL version 420,2013-08-09 12:31:00,
2013-08-09 22:41:00,57.2,36.6,29.85,WNW,295,2.6,4.9,46,0.00,,,0.00,WSDL version 420,2013-08-09 12:41:00,
2013-08-09 22:46:00,57.2,36.6,29.85,WNW,293,2.0,5.6,46,0.00,,,0.00,WSDL version 420,2013-08-09 12:46:00,
2013-08-09 22:56:00,57.2,36.7,29.85,West,276,3.0,6.7,47,0.00,,,0.00,WSDL version 420,2013-08-09 12:56:00,
2013-08-09 23:01:00,57.0,37.0,29.85,West,281,3.1,5.8,47,0.00,,,0.00,WSDL version 420,2013-08-09 13:01:00,
2013-08-09 23:06:00,57.0,37.0,29.85,WNW,293,2.5,5.8,47,0.00,,,0.00,WSDL version 420,2013-08-09 13:06:00,
2013-08-09 23:11:00,57.1,37.1,29.85,NW,304,3.2,6.3,47,0.00,,,0.00,WSDL version 420,2013-08-09 13:11:00,
2013-08-09 23:16:00,57.3,36.7,29.83,WNW,286,3.9,8.1,46,-99.99,,,-99.99,WSDL version 420,2013-08-09 13:16:00,
2013-08-09 23:21:00,57.5,36.9,29.83,West,270,3.8,8.1,46,0.00,,,0.00,WSDL version 420,2013-08-09 13:21:00,
2013-08-09 23:26:00,57.7,37.1,29.83,NW,321,3.2,12.1,46,0.00,,,0.00,WSDL version 420,2013-08-09 13:26:00,
2013-08-09 23:31:00,57.8,36.7,29.83,West,264,6.4,12.1,45,0.00,,,0.00,WSDL version 420,2013-08-09 13:31:00,
2013-08-09 23:36:00,57.9,36.7,29.83,West,270,4.7,12.1,45,0.00,,,0.00,WSDL version 420,2013-08-09 13:36:00,
2013-08-09 23:41:00,58.1,36.3,29.83,WNW,295,5.6,11.2,44,0.00,,,0.00,WSDL version 420,2013-08-09 13:41:00,
2013-08-09 23:46:00,58.1,36.3,29.85,WNW,287,3.8,10.5,44,0.00,,,0.00,WSDL version 420,2013-08-09 13:46:00,
2013-08-09 23:51:00,58.1,36.3,29.85,West,260,3.1,7.6,44,0.00,,,0.00,WSDL version 420,2013-08-09 13:51:00,
2013-08-09 23:56:00,58.1,36.3,29.85,NW,304,3.3,6.5,44,0.00,,,0.00,WSDL version 420,2013-08-09 13:56:00,